EW4210 Weather Reports


Display with metric or nautical units.
time (UTC)temp
F
wind
direction
speed
MPH
gust
MPH
rain 1hr
in
rain 24hr
in
rain mn
in
humidity
%
barometer
mb
20260903164557 91 138 2.0 6.0 0.00 0.00 0.00 61 1014.9
20260903163042 91 235 1.0 5.0 0.00 0.00 0.00 60 1015.1
20260903161527 90 250 1.0 4.0 0.00 0.00 0.00 60 1015.1
20260903160055 90 157 2.0 5.0 0.00 0.00 0.00 61 1015.1
20260903154547 89 242 0.0 3.0 0.00 0.00 0.00 63 1015.3
20260903153018 89 290 0.0 4.0 0.00 0.00 0.00 62 1015.3
20260903151555 88 116 0.0 4.0 0.00 0.00 0.00 63 1015.3
20260903151501 88 116 0.0 4.0 0.00 0.00 0.00 63 1015.2
20260903150043 87 146 0.0 3.0 0.00 0.00 0.00 67 1015.3
20260903144522 87 250 1.0 3.0 0.00 0.00 0.00 65 1015.3
20260903143054 86 193 1.0 3.0 0.00 0.00 0.00 67 1015.3
20260903141535 85 190 1.0 3.0 0.00 0.00 0.00 72 1015.5
20260903140013 85 187 0.0 2.0 0.00 0.00 0.00 72 1015.5
20260903134550 83 161 0.0 2.0 0.00 0.00 0.00 77 1015.6
20260903133024 82 162 0.0 0.0 0.00 0.00 0.00 81 1015.5
20260903131506 81 140 0.0 0.0 0.00 0.00 0.00 84 1015.5
20260903130051 78 98 0.0 0.0 0.00 0.00 0.00 88 1015.5
20260903124526 76 88 0.0 0.0 0.00 0.00 0.00 93 1015.3
20260903123009 74 88 0.0 0.0 0.00 0.00 0.00 94 1015.1
20260903121548 74 88 0.0 0.0 0.00 0.00 0.00 93 1015.2
20260903120030 74 88 0.0 0.0 0.00 0.00 0.00 93 1015.0
20260903114518 74 88 0.0 0.0 0.00 0.00 0.00 92 1014.8
20260903113107 74 88 0.0 0.0 0.00 0.00 0.00 92 1014.7
20260903111542 74 88 0.0 0.0 0.00 0.00 0.00 92 1014.6
20260903110024 75 88 0.0 0.0 0.00 0.00 0.00 92 1014.4
20260903104506 75 88 0.0 0.0 0.00 0.00 0.00 92 1014.3
20260903103042 75 88 0.0 0.0 0.00 0.00 0.00 91 1014.2
20260903101525 75 88 0.0 0.0 0.00 0.00 0.00 91 1014.2
20260903100104 75 88 0.0 0.0 0.00 0.00 0.00 90 1014.1
20260903100002 75 88 0.0 0.0 0.00 0.00 0.00 90 1014.2
20260903094544 76 88 0.0 0.0 0.00 0.00 0.00 90 1014.1
20260903093040 76 88 0.0 0.0 0.00 0.00 0.00 89 1014.0
20260903091503 76 88 0.0 0.0 0.00 0.00 0.00 88 1013.9
20260903090044 77 88 0.0 0.0 0.00 0.00 0.00 87 1013.9
20260903084530 77 88 0.0 0.0 0.00 0.00 0.00 86 1013.8
20260903083004 78 88 0.0 0.0 0.00 0.00 0.00 86 1013.8
20260903081541 78 88 0.0 0.0 0.00 0.00 0.00 85 1013.6
20260903080019 78 88 0.0 0.0 0.00 0.00 0.00 85 1013.7
20260903074559 78 88 0.0 0.0 0.00 0.00 0.00 84 1013.7
20260903073032 79 88 0.0 0.0 0.00 0.00 0.00 84 1013.7
20260903071517 79 88 0.0 0.0 0.00 0.00 0.00 83 1013.6
20260903070047 79 88 0.0 0.0 0.00 0.00 0.00 82 1013.9
20260903064527 80 88 0.0 0.0 0.00 0.00 0.00 81 1013.9
20260903063008 80 88 0.0 0.0 0.00 0.00 0.00 80 1013.8
20260903061551 80 88 0.0 0.0 0.00 0.00 0.00 79 1013.7
20260903060031 80 88 0.0 0.0 0.00 0.00 0.00 80 1014.0
20260903054523 79 88 0.0 0.0 0.00 0.00 0.00 82 1013.9
20260903053003 80 88 0.0 0.0 0.00 0.00 0.00 81 1013.9
20260903051541 80 88 0.0 0.0 0.00 0.00 0.00 81 1013.7
20260903050023 80 88 0.0 0.0 0.00 0.00 0.00 80 1013.7
20260903044600 81 88 0.0 0.0 0.00 0.00 0.00 79 1013.7
20260903043039 81 88 0.0 0.0 0.00 0.00 0.00 78 1013.6
20260903041518 81 88 0.0 0.0 0.00 0.00 0.00 77 1013.7
20260903040100 82 88 0.0 0.0 0.00 0.00 0.00 76 1013.6
20260903040008 82 88 0.0 0.0 0.00 0.00 0.00 76 1013.7
20260903034545 82 88 0.0 0.0 0.00 0.00 0.00 76 1013.5
20260903033038 83 88 0.0 0.0 0.00 0.00 0.00 76 1013.7
20260903031517 84 88 0.0 1.0 0.00 0.00 0.00 74 1013.6
20260903030049 84 88 0.0 0.0 0.00 0.00 0.00 72 1013.6
20260903024542 85 88 0.0 2.0 0.00 0.00 0.00 71 1013.6
20260903023019 86 88 0.0 3.0 0.00 0.00 0.00 69 1013.4
20260903021508 87 101 0.0 0.0 0.00 0.00 0.00 67 1013.4
20260903020058 87 95 0.0 4.0 0.00 0.00 0.00 67 1013.3
20260903014542 87 102 1.0 3.0 0.00 0.00 0.00 66 1013.2
20260903013021 87 84 0.0 3.0 0.00 0.00 0.00 66 1013.0
20260903011507 87 88 0.0 3.0 0.00 0.00 0.00 66 1012.9
20260903010046 88 107 0.0 1.0 0.00 0.00 0.00 65 1012.7
20260903004533 89 93 1.0 3.0 0.00 0.00 0.00 64 1012.7
20260903003014 89 94 0.0 2.0 0.00 0.00 0.00 63 1012.6
20260903001510 90 101 1.0 4.0 0.00 0.00 0.00 61 1012.6
20260903000050 91 115 1.0 4.0 0.00 0.00 0.00 59 1012.7
20260902234536 91 80 0.0 6.0 0.00 0.00 0.00 58 1012.6
20260902233019 92 78 0.0 4.0 0.00 0.00 0.00 57 1012.7
20260902231510 92 65 1.0 4.0 0.00 0.00 0.00 56 1012.6
20260902230043 93 107 1.0 4.0 0.00 0.00 0.00 55 1012.8
20260902224524 93 90 2.0 7.0 0.00 0.00 0.00 54 1012.9
20260902223010 93 104 2.0 8.0 0.00 0.00 0.00 53 1013.0
20260902221542 94 72 2.0 7.0 0.00 0.00 0.00 53 1013.0
20260902220024 94 86 3.0 8.0 0.00 0.00 0.00 53 1013.2
20260902214504 94 61 1.0 6.0 0.00 0.00 0.00 53 1013.3
20260902213046 94 78 1.0 3.0 0.00 0.00 0.00 52 1013.4
20260902211526 94 48 2.0 7.0 0.00 0.00 0.00 53 1013.4
20260902210012 95 137 3.0 8.0 0.00 0.00 0.00 52 1013.4
20260902204554 94 116 1.0 10.0 0.00 0.00 0.00 54 1013.6
20260902203033 93 88 2.0 8.0 0.00 0.00 0.00 55 1013.7
20260902201512 94 67 2.0 5.0 0.00 0.00 0.00 57 1013.7
20260902200052 95 128 2.0 5.0 0.00 0.00 0.00 54 1013.9
20260902194539 95 81 2.0 7.0 0.00 0.00 0.00 55 1014.1
20260902193014 94 62 0.0 4.0 0.00 0.00 0.00 55 1014.4
20260902191600 95 47 1.0 9.0 0.00 0.00 0.00 54 1014.8
20260902190040 95 106 2.0 8.0 0.00 0.00 0.00 52 1015.0
20260902184521 95 92 2.0 7.0 0.00 0.00 0.00 52 1015.1
20260902183109 94 139 1.0 7.0 0.00 0.00 0.00 54 1015.3
20260902181532 94 266 1.0 5.0 0.00 0.00 0.00 54 1015.7
20260902180020 93 63 2.0 7.0 0.00 0.00 0.00 57 1015.8
20260902174547 93 159 2.0 7.0 0.00 0.00 0.00 55 1016.0
20260902173036 94 74 1.0 9.0 0.00 0.00 0.00 57 1016.2
20260902171511 93 166 0.0 9.0 0.00 0.00 0.00 58 1016.5
20260902170047 92 346 0.0 7.0 0.00 0.00 0.00 57 1016.6